GW1942 Weather Reports


time (UTC)temp
C
wind
direction
speed
KPH
gust
KPH
rain 1hr
cm
rain 24hr
cm
rain mn
cm
humidity
%
barometer
mb
20260904231503 17 161 0.0 8.0 0.00 0.38 0.38 53 1015.0
20260904230112 18 162 1.6 6.4 0.00 0.38 0.38 54 1014.9
20260904224601 16 162 1.6 4.8 0.00 0.38 0.38 56 1015.0
20260904223130 16 161 0.0 3.2 0.00 0.38 0.38 57 1015.1
20260904221559 16 162 1.6 3.2 0.00 0.38 0.38 59 1015.0
20260904220056 16 162 0.0 3.2 0.00 0.38 0.38 63 1015.0
20260904214602 16 161 4.8 8.0 0.00 0.38 0.38 57 1015.1
20260904213055 16 162 0.0 4.8 0.00 0.38 0.38 58 1015.1
20260904211554 17 162 1.6 3.2 0.00 0.38 0.38 57 1015.0
20260904210101 17 162 1.6 4.8 0.00 0.38 0.38 57 1014.8
20260904204552 16 162 1.6 8.0 0.00 0.38 0.38 60 1014.7
20260904203056 16 162 0.0 3.2 0.00 0.38 0.38 62 1014.5
20260904201543 15 161 1.6 3.2 0.00 0.38 0.38 67 1014.5
20260904200039 15 162 0.0 3.2 0.00 0.38 0.38 69 1014.6
20260904194537 14 161 0.0 3.2 0.00 0.38 0.38 71 1014.7
20260904193035 14 162 0.0 3.2 0.00 0.38 0.38 74 1014.5
20260904191531 13 162 0.0 3.2 0.00 0.38 0.38 77 1014.6
20260904190034 13 162 0.0 3.2 0.00 0.38 0.38 76 1014.5
20260904184528 12 161 1.6 4.8 0.00 0.38 0.38 80 1014.6
20260904183027 12 162 0.0 3.2 0.00 0.38 0.38 76 1014.5
20260904181531 12 161 0.0 3.2 0.00 0.38 0.38 78 1014.4
20260904180023 12 162 1.6 4.8 0.00 0.38 0.38 79 1014.3
20260904174519 12 161 0.0 4.8 0.00 0.38 0.38 84 1014.3
20260904173041 11 161 0.0 1.6 0.00 0.38 0.38 83 1014.3
20260904171513 11 162 0.0 1.6 0.00 0.38 0.38 85 1014.4
20260904170010 10 161 0.0 0.0 0.00 0.38 0.38 88 1014.0
20260904164505 10 162 0.0 0.0 0.00 0.38 0.38 90 1014.0
20260904163004 10 162 0.0 1.6 0.00 0.38 0.38 90 1013.9
20260904161507 10 162 0.0 3.2 0.00 0.38 0.38 90 1013.7
20260904160003 10 162 1.6 3.2 0.00 0.38 0.38 91 1013.4
20260904154559 10 162 0.0 3.2 0.00 0.38 0.38 91 1013.1
20260904153100 9 162 0.0 1.6 0.03 0.38 0.38 92 1013.1
20260904151601 9 162 0.0 1.6 0.03 0.38 0.38 93 1012.9
20260904150056 9 162 1.6 3.2 0.03 0.38 0.38 93 1012.8
20260904144609 9 162 0.0 1.6 0.03 0.38 0.38 94 1012.7
20260904143059 8 162 0.0 0.0 0.00 0.36 0.36 94 1012.7
20260904141556 8 162 0.0 0.0 0.00 0.36 0.36 95 1012.5
20260904140050 8 162 0.0 1.6 0.00 0.36 0.36 95 1012.3
20260904134547 8 162 0.0 0.0 0.00 0.36 0.36 94 1012.2
20260904133056 8 161 0.0 0.0 0.00 0.36 0.36 94 1011.9
20260904131547 8 162 0.0 1.6 0.00 0.36 0.36 94 1011.8
20260904130044 8 162 0.0 1.6 0.00 0.36 0.36 93 1011.4
20260904124542 8 162 0.0 0.0 0.00 0.36 0.36 93 1011.0
20260904123039 8 162 0.0 1.6 0.00 0.36 0.36 93 1010.9
20260904121537 8 162 0.0 4.8 0.00 0.36 0.36 93 1010.7
20260904120037 8 162 0.0 3.2 0.00 0.36 0.36 93 1010.7
20260904114535 8 162 0.0 3.2 0.00 0.38 0.36 91 1009.9
20260904113034 8 162 1.6 8.0 0.00 0.38 0.36 91 1009.7
20260904111532 8 162 3.2 6.4 0.00 0.38 0.36 92 1009.7
20260904110032 8 161 0.0 3.2 0.03 0.38 0.36 94 1010.0
20260904104530 8 162 0.0 1.6 0.10 0.38 0.36 93 1010.0
20260904103028 8 162 0.0 0.0 0.33 0.38 0.36 92 1009.8
20260904101528 9 162 0.0 4.8 0.33 0.38 0.36 91 1009.5
20260904100027 8 162 1.6 6.4 0.30 0.36 0.33 91 1009.2
20260904094525 9 162 0.0 1.6 0.23 0.28 0.25 91 1009.4
20260904093022 9 162 1.6 4.8 0.00 0.05 0.03 90 1009.7
20260904091540 8 162 0.0 3.2 0.00 0.05 0.03 91 1009.4
20260904090020 9 162 0.0 1.6 0.00 0.05 0.03 90 1008.9
20260904084519 9 162 0.0 1.6 0.00 0.05 0.03 90 1008.9
20260904083026 8 161 0.0 1.6 0.00 0.05 0.03 90 1009.0
20260904081518 8 162 0.0 1.6 0.00 0.05 0.03 90 1009.0
20260904080017 8 162 0.0 1.6 0.03 0.05 0.03 89 1008.5
20260904074515 9 162 0.0 1.6 0.03 0.10 0.03 88 1008.1
20260904073017 9 162 0.0 1.6 0.03 0.10 0.03 89 1008.3
20260904071511 10 162 1.6 6.4 0.03 0.10 0.03 84 1008.8
20260904070010 10 162 0.0 3.2 0.00 0.08 0.00 84 1008.9
20260904064509 10 162 0.0 1.6 0.00 0.10 0.00 84 1009.2
20260904063018 10 162 0.0 1.6 0.00 0.10 0.00 83 1009.3
20260904061508 9 160 0.0 3.2 0.00 0.10 0.00 84 1009.0
20260904054600 10 160 0.0 0.0 0.00 0.10 0.10 73 1008.1
20260904053107 10 161 0.0 1.6 0.00 0.10 0.10 73 1008.5
20260904051602 10 160 0.0 0.0 0.00 0.10 0.10 76 1009.1
20260904050106 10 160 0.0 0.0 0.00 0.10 0.10 75 1009.6
20260904044608 10 160 0.0 1.6 0.00 0.10 0.10 74 1009.4
20260904043101 10 160 0.0 1.6 0.00 0.10 0.10 73 1009.4
20260904041556 10 160 0.0 3.2 0.00 0.10 0.10 73 1009.7
20260904040056 11 160 1.6 8.0 0.00 0.10 0.10 68 1009.9
20260904034554 11 160 3.2 8.0 0.00 0.10 0.10 66 1010.0
20260904033059 11 160 4.8 8.0 0.00 0.10 0.10 68 1010.3
20260904031604 11 160 1.6 6.4 0.00 0.10 0.10 67 1010.2
20260904030053 10 160 0.0 4.8 0.00 0.10 0.10 71 1010.3
20260904024552 11 160 3.2 8.0 0.00 0.10 0.10 67 1010.1
20260904023053 12 160 3.2 8.0 0.00 0.10 0.10 63 1010.2
20260904021553 12 160 0.0 3.2 0.00 0.10 0.10 62 1009.8
20260904020050 12 161 0.0 0.0 0.00 0.10 0.10 63 1009.7
20260904014550 13 160 0.0 1.6 0.00 0.10 0.10 60 1009.6
20260904013049 15 160 0.0 3.2 0.00 0.10 0.10 52 1009.7
20260904011548 16 160 0.0 3.2 0.00 0.10 0.10 46 1009.8
20260904010051 16 160 0.0 6.4 0.00 0.10 0.10 44 1010.0
20260904004548 17 161 3.2 9.7 0.00 0.10 0.10 41 1010.1
20260904003047 18 160 1.6 6.4 0.00 0.10 0.10 40 1010.1
20260904001546 18 160 3.2 14.5 0.00 0.10 0.10 41 1010.1
20260904000044 18 160 4.8 8.0 0.00 0.10 0.10 41 1010.2
20260903234540 18 160 0.0 8.0 0.00 0.10 0.10 45 1010.3
20260903233044 17 160 1.6 9.7 0.00 0.10 0.10 46 1010.3